Date,TemperatureHighF,TemperatureAvgF,TemperatureLowF,DewpointHighF,DewpointAvgF,DewpointLowF,HumidityHigh,HumidityAvg,HumidityLow,PressureMaxIn,PressureMinIn,WindSpeedMaxMPH,WindSpeedAvgMPH,GustSpeedMaxMPH,PrecipitationSumIn
2013-3-1,76,54,41,58,47,40,96,79,48,30.42,30.22,8,1,12,0.00
2013-3-2,70,55,44,56,48,42,94,79,54,30.24,30.05,10,1,11,0.00
2013-3-3,68,54,49,53,48,45,93,81,54,30.08,30.01,11,1,14,0.00
2013-3-4,61,50,42,50,45,39,94,84,64,30.14,30.04,10,1,13,0.00
2013-3-5,57,48,39,48,43,37,97,82,65,30.06,29.78,13,3,20,0.14
2013-3-6,59,51,42,49,43,38,90,75,52,30.05,29.79,10,2,12,0.14
2013-3-7,56,47,38,48,41,36,94,81,53,29.99,29.85,12,1,13,0.00
2013-3-8,63,50,41,48,43,37,88,78,56,30.03,29.83,11,1,16,0.00
2013-3-9,70,52,39,50,43,36,92,73,43,30.29,30.03,12,1,14,0.00
2013-3-10,73,53,38,51,44,36,94,74,34,30.34,30.23,9,2,12,0.00
2013-3-11,75,53,41,54,46,39,96,79,42,30.26,30.09,10,4,13,0.00
2013-3-12,76,54,44,60,48,42,96,82,51,30.16,30.05,11,2,12,0.00
2013-3-13,80,57,43,58,49,41,96,78,40,30.16,30.03,11,1,11,0.00
2013-3-14,70,54,46,57,48,43,96,81,52,30.16,30.07,11,0,14,0.00
2013-3-15,74,55,44,57,48,41,95,79,48,30.12,30.01,6,0,12,0.00
2013-3-16,74,55,42,54,47,40,95,76,44,30.11,29.99,10,0,15,0.00
2013-3-17,71,55,45,52,44,41,87,69,40,30.14,30.03,10,0,12,0.00
2013-3-18,71,53,40,53,44,37,93,75,46,30.10,30.00,8,1,10,0.00
2013-3-19,64,54,46,50,46,42,91,76,55,30.12,30.03,11,1,11,0.03
2013-3-20,59,53,48,57,50,43,95,92,79,30.12,30.04,0,0,0,0.28
2013-3-21,67,52,40,51,44,38,95,77,51,30.12,30.00,10,0,12,0.00
2013-3-22,70,54,42,44,40,36,81,63,33,30.12,30.02,10,0,10,0.00
2013-3-23,71,52,37,48,40,34,90,67,31,30.14,30.03,7,1,13,0.00
2013-3-24,73,53,39,54,44,37,93,75,44,30.08,29.96,11,2,11,0.00
2013-3-25,60,49,39,50,43,37,94,81,63,30.02,29.92,10,1,14,0.00
2013-3-26,66,52,43,51,46,41,94,79,55,30.00,29.93,10,2,13,0.00
2013-3-27,62,54,46,56,49,43,93,84,70,30.00,29.93,9,2,12,0.00
2013-3-28,66,57,51,57,52,48,94,84,68,30.07,29.98,7,1,9,0.00
2013-3-29,76,59,50,59,52,48,97,81,45,30.08,29.99,11,1,12,0.00
2013-3-30,69,58,51,57,52,49,94,84,57,30.05,29.97,7,0,11,0.07
2013-3-31,66,58,53,57,54,51,96,86,59,30.05,29.97,13,1,17,0.29